Alexandria, MN

2:39 AM CST on December 08, 2019 (GMT -0600)
Chandler

Weather History for KAXN - October, 2019

Change the Weather History Date:

Monday, October 7, 2019

  Actual Average Record
Temperature  
Mean Temperature 52 °F -  
Max Temperature 64 °F 57 °F 86 °F (2003)
Min Temperature 39 °F 38 °F 24 °F (1952)
Degree Days  
Heating Degree Days 14    
Growing Degree Days 2 (Base 50)    
Moisture  
Dew Point 38 °F    
Average Humidity 62    
Maximum Humidity 86    
Minimum Humidity 33    
Precipitation  
Precipitation 0.00 in - - ()
Sea Level Pressure  
Sea Level Pressure 30.10 in    
Wind  
Wind Speed 8 mph ()    
Max Wind Speed 12 mph    
Max Gust Speed 18 mph    
Visibility 10.0 miles    
Events      
Averages and records for this station are not official NWS values.
T = Trace of Precipitation, MM = Missing Value Source: Averaged Metar Reports

Daily Weather History Graph

Daily Weather History Graph

Search for Another Location

Airport or City:

Astronomy

Oct. 07, 2019 Rise Set
Actual Time 7:27 AM CDT 6:50 PM CDT
Civil Twilight 6:57 AM CDT 7:20 PM CDT
Nautical Twilight 6:23 AM CDT 7:54 PM CDT
Astronomical Twilight 5:48 AM CDT 8:29 PM CDT
Moon 4:34 PM CDT (10/7) 12:58 AM CDT (10/7)
Length of Visible Light 12h 22m
Length of Day
11h 23m
Waxing Gibbous, 69% of the Moon is Illuminated
Oct 7
Waxing Gibbous
Oct 13
Full
Oct 21
Last Quarter
Oct 27
New
Nov 4
First Quarter

Hourly Weather History & Observations

Time (CDT) Temp. Windchill Dew Point Humidity Pressure Visibility Wind Dir Wind Speed Gust Speed Precip Events Conditions
12:53 AM 48.0 °F - 39.0 °F 71% 30.08 in 10.0 mi WNW 10.4 mph - N/A   Clear
1:53 AM 46.0 °F 41.4 °F 39.0 °F 76% 30.08 in 10.0 mi West 9.2 mph - N/A   Clear
2:53 AM 46.0 °F 41.0 °F 37.9 °F 73% 30.09 in 10.0 mi West 10.4 mph - N/A   Clear
3:53 AM 44.1 °F 39.5 °F 37.0 °F 76% 30.10 in 10.0 mi West 8.1 mph - N/A   Clear
4:53 AM 43.0 °F 37.7 °F 37.0 °F 80% 30.12 in 10.0 mi WSW 9.2 mph - N/A   Clear
5:53 AM 42.1 °F 37.1 °F 37.0 °F 82% 30.14 in 10.0 mi West 8.1 mph - N/A   Clear
6:53 AM 39.9 °F 33.9 °F 36.0 °F 86% 30.15 in 10.0 mi WSW 9.2 mph - N/A   Clear
7:53 AM 39.9 °F 35.1 °F 36.0 °F 86% 30.16 in 10.0 mi West 6.9 mph - N/A   Clear
8:53 AM 46.9 °F - 39.0 °F 74% 30.17 in 10.0 mi West 8.1 mph - N/A   Clear
9:53 AM 50.0 °F - 39.0 °F 66% 30.17 in 10.0 mi West 4.6 mph - N/A   Clear
10:53 AM 54.0 °F - 39.0 °F 57% 30.18 in 10.0 mi WSW 6.9 mph - N/A   Clear
11:53 AM 57.0 °F - 39.9 °F 53% 30.17 in 10.0 mi SW 9.2 mph - N/A   Clear
12:53 PM 59.0 °F - 39.0 °F 48% 30.16 in 10.0 mi SW 10.4 mph - N/A   Clear
1:53 PM 63.0 °F - 39.0 °F 41% 30.12 in 10.0 mi WSW 9.2 mph 18.4 mph N/A   Clear
2:53 PM 64.0 °F - 37.0 °F 37% 30.10 in 10.0 mi SSW 10.4 mph - N/A   Clear
3:53 PM 64.9 °F - 35.1 °F 33% 30.08 in 10.0 mi West 10.4 mph - N/A   Clear
4:53 PM 64.0 °F - 36.0 °F 35% 30.07 in 10.0 mi SW 11.5 mph - N/A   Clear
5:53 PM 62.1 °F - 37.0 °F 39% 30.06 in 10.0 mi SSW 9.2 mph - N/A   Clear
6:53 PM 55.0 °F - 37.9 °F 53% 30.06 in 10.0 mi South 5.8 mph - N/A   Clear
7:53 PM 52.0 °F - 37.9 °F 59% 30.06 in 10.0 mi SSE 6.9 mph - N/A   Clear
8:53 PM 51.1 °F - 37.9 °F 61% 30.04 in 10.0 mi SSE 8.1 mph - N/A   Clear
9:53 PM 50.0 °F - 37.9 °F 63% 30.03 in 10.0 mi SE 6.9 mph - N/A   Clear
10:53 PM 48.9 °F - 37.9 °F 66% 30.01 in 10.0 mi SE 6.9 mph - N/A   Clear
11:53 PM 48.0 °F - 37.9 °F 68% 29.99 in 10.0 mi SE 8.1 mph - N/A   Clear